map of CJA home
CJA - Airport
Location
City:  Cajamarca, Cajamarca, Perú
Name:Major General FAP Armando Revoredo Iglesias
ICAO:SPJR
IATA:CJA

Details
Type:Airport (Aerodrome, Airfield)
Use:Public/Civil
Latitude:7°08'21"S (-7.139146)
Longitude:78°29'22"W (-78.489582)
Elevation:8848 ft (2697 m)
Variation:2.04°W (WMM2015 magnetic declination)
-0.16° annual change
Runways:1
Longest:8202 × 148 ft (2500 × 45 m), paved

Time
Time Zone:UTC-5
Local Time:

Weather
METAR:SPJR 102300Z 16006KT 130V230 9999 SCT023 OVC043 16/12 Q1026 RMK PP000
TAF:SPJR 101700Z 1018/1118 18007KT 9999 FEW026 SCT043 PROB30 1022/1024 RA SCT023 BKN037
BECMG 1100/1102 VRB02KT FEW028 SCT043

Related Locations
Nearby:
Farthest:PAN: 12426 mi / 19997 km
Pattani, 94, TH

Find:

   beyond  
but within

Other Information
Maps:
NOTAMs:
Links:
Sources:

  
flag of Perú
flag of Cajamarca
  

Sectional Chart

Flight Planning
at skyvector.com

Satellite Image

Google Maps Satellite view

 

Copyright © 2004-2017 Karl L. Swartz. All rights reserved.
The Great Circle Mapper name and logo are trademarks of the Great Circle Mapper.
All other trademarks mentioned herein belong to their respective owners.
Please see credits for attibutions and further copyright information.

  Follow gcmap on Facebook Follow gcmap on Twitter Follow gcmap on Google+ GCmap on LinkedIn

hCard Microformat

Geo Microformat